�������l�o���
Date,Time,MP-1(��Sv/h),MP-2(��Sv/h),MP-3(��Sv/h),MP-4(��Sv/h),MP-5(��Sv/h),MP-6(��Sv/h),MP-7(��Sv/h),MP-8(��Sv/h),����,����(m/s),���J
2021/09/01,00:00,0.617,0.923,0.584,1.117,0.795,0.369,0.639,0.596,�쐼,0.6,��
2021/09/01,00:10,0.618,0.927,0.581,1.118,0.798,0.367,0.639,0.595,��,0.9,��
2021/09/01,00:20,0.617,0.925,0.581,1.115,0.796,0.369,0.637,0.595,���k��,0.9,��
2021/09/01,00:30,0.615,0.925,0.584,1.117,0.797,0.369,0.638,0.594,�k��,1.2,��
2021/09/01,00:40,0.616,0.926,0.584,1.117,0.796,0.369,0.639,0.595,�k,1.2,��
2021/09/01,00:50,0.616,0.924,0.582,1.117,0.795,0.369,0.638,0.594,-,CALM,��
2021/09/01,01:00,0.617,0.925,0.582,1.119,0.795,0.369,0.638,0.596,���쐼,0.9,��
2021/09/01,01:10,0.617,0.924,0.582,1.118,0.795,0.369,0.638,0.596,��,1.1,��
2021/09/01,01:20,0.616,0.924,0.581,1.118,0.795,0.367,0.638,0.594,��,1.2,��
2021/09/01,01:30,0.617,0.926,0.583,1.117,0.795,0.368,0.639,0.595,���k��,1.1,��
2021/09/01,01:40,0.617,0.925,0.581,1.119,0.796,0.368,0.638,0.596,��,1.4,��
2021/09/01,01:50,0.618,0.926,0.581,1.117,0.796,0.368,0.640,0.596,��,1.4,��
2021/09/01,02:00,0.616,0.926,0.583,1.118,0.796,0.370,0.637,0.598,�쐼,1.5,��
2021/09/01,02:10,0.617,0.923,0.582,1.119,0.796,0.368,0.641,0.595,��쐼,1.5,��
2021/09/01,02:20,0.616,0.926,0.582,1.119,0.796,0.369,0.638,0.595,��쐼,1.4,��
2021/09/01,02:30,0.618,0.924,0.584,1.119,0.793,0.368,0.639,0.597,�쐼,1.2,��
2021/09/01,02:40,0.618,0.923,0.583,1.119,0.795,0.369,0.640,0.595,��,1.7,��
2021/09/01,02:50,0.617,0.925,0.582,1.117,0.795,0.369,0.639,0.596,��,2.0,��
2021/09/01,03:00,0.618,0.926,0.583,1.119,0.794,0.369,0.641,0.597,��,1.7,��
2021/09/01,03:10,0.617,0.927,0.581,1.118,0.797,0.369,0.640,0.596,���k��,1.7,��
2021/09/01,03:20,0.618,0.924,0.583,1.120,0.796,0.368,0.638,0.596,��,0.9,��
2021/09/01,03:30,0.619,0.924,0.582,1.118,0.796,0.367,0.639,0.595,���k��,1.1,��
2021/09/01,03:40,0.617,0.923,0.583,1.118,0.795,0.369,0.639,0.594,�k�k��,1.7,��
2021/09/01,03:50,0.616,0.926,0.581,1.118,0.796,0.368,0.640,0.596,�k�k��,2.0,��
2021/09/01,04:00,0.616,0.925,0.583,1.121,0.796,0.369,0.641,0.596,�k��,2.8,��
2021/09/01,04:10,0.617,0.924,0.582,1.120,0.796,0.368,0.639,0.596,�k��,3.9,��
2021/09/01,04:20,0.617,0.926,0.583,1.118,0.797,0.369,0.638,0.596,�k��,4.0,��
2021/09/01,04:30,0.617,0.924,0.583,1.118,0.796,0.368,0.640,0.597,�k�k��,3.1,��
2021/09/01,04:40,0.618,0.924,0.580,1.117,0.795,0.368,0.639,0.596,�k�k��,3.0,��
2021/09/01,04:50,0.618,0.925,0.582,1.118,0.796,0.370,0.641,0.596,�k�k��,2.3,�L
2021/09/01,05:00,0.617,0.926,0.582,1.118,0.795,0.369,0.639,0.595,�k�k��,2.5,��
2021/09/01,05:10,0.619,0.926,0.583,1.119,0.795,0.370,0.639,0.597,�k�k��,2.5,��
2021/09/01,05:20,0.615,0.925,0.583,1.119,0.796,0.368,0.640,0.595,�k�k��,2.6,��
2021/09/01,05:30,0.617,0.925,0.581,1.121,0.795,0.367,0.640,0.595,�k�k��,2.9,��
2021/09/01,05:40,0.619,0.925,0.581,1.119,0.796,0.368,0.640,0.596,�k�k��,3.3,�L
2021/09/01,05:50,0.617,0.923,0.582,1.118,0.796,0.368,0.640,0.596,�k�k��,4.0,�L
2021/09/01,06:00,0.616,0.925,0.583,1.119,0.797,0.368,0.639,0.596,�k��,3.7,�L
2021/09/01,06:10,0.616,0.925,0.584,1.120,0.796,0.368,0.639,0.596,�k�k��,3.2,�L
2021/09/01,06:20,0.617,0.926,0.582,1.120,0.796,0.367,0.638,0.596,�k�k��,3.0,�L
2021/09/01,06:30,0.618,0.923,0.584,1.118,0.796,0.369,0.639,0.595,�k�k��,2.9,�L
2021/09/01,06:40,0.619,0.925,0.582,1.118,0.795,0.369,0.639,0.596,�k�k��,2.5,�L
2021/09/01,06:50,0.618,0.925,0.582,1.122,0.797,0.371,0.639,0.596,�k��,2.8,�L
2021/09/01,07:00,0.620,0.925,0.582,1.122,0.798,0.371,0.638,0.595,���k��,2.6,�L
2021/09/01,07:10,0.619,0.925,0.585,1.122,0.798,0.370,0.641,0.595,���쐼,2.0,�L
2021/09/01,07:20,0.618,0.924,0.584,1.120,0.798,0.370,0.640,0.595,�쐼,2.3,�L
2021/09/01,07:30,0.618,0.924,0.583,1.120,0.798,0.371,0.640,0.596,��쐼,3.3,�L
2021/09/01,07:40,0.618,0.923,0.583,1.119,0.795,0.371,0.639,0.595,��쐼,3.1,�L
2021/09/01,07:50,0.620,0.924,0.584,1.122,0.797,0.371,0.640,0.596,��쐼,3.4,�L
2021/09/01,08:00,0.619,0.926,0.584,1.122,0.797,0.369,0.639,0.596,��,2.6,�L
2021/09/01,08:10,0.618,0.924,0.584,1.121,0.797,0.370,0.641,0.598,��,2.3,�L
2021/09/01,08:20,0.622,0.926,0.586,1.121,0.796,0.370,0.641,0.597,��쓌,1.9,�L
2021/09/01,08:30,0.620,0.922,0.585,1.121,0.795,0.371,0.639,0.595,��쐼,0.6,�L
2021/09/01,08:40,0.620,0.924,0.587,1.119,0.793,0.372,0.640,0.596,�쐼,1.2,�L
2021/09/01,08:50,0.618,0.920,0.586,1.121,0.793,0.374,0.640,0.596,�쐼,1.9,�L
2021/09/01,09:00,0.616,0.917,0.585,1.118,0.791,0.371,0.639,0.596,�쐼,2.3,�L
2021/09/01,09:10,0.617,0.916,0.585,1.118,0.788,0.371,0.635,0.594,�쐼,2.3,�L
2021/09/01,09:20,0.615,0.914,0.583,1.118,0.788,0.371,0.637,0.594,�쐼,1.7,�L
2021/09/01,09:30,0.614,0.914,0.582,1.118,0.787,0.367,0.637,0.593,���k��,3.3,�L
2021/09/01,09:40,0.615,0.909,0.580,1.116,0.789,0.369,0.635,0.593,���k��,4.8,�L
2021/09/01,09:50,0.614,0.910,0.582,1.118,0.788,0.368,0.636,0.593,���k��,4.1,�L
2021/09/01,10:00,0.612,0.911,0.580,1.116,0.783,0.368,0.634,0.591,���k��,2.9,�L
2021/09/01,10:10,0.611,0.906,0.579,1.111,0.784,0.369,0.634,0.591,��,2.9,�L
2021/09/01,10:20,0.611,0.905,0.579,1.111,0.782,0.368,0.634,0.591,���쐼,4.0,�L
2021/09/01,10:30,0.611,0.902,0.578,1.110,0.781,0.368,0.632,0.592,���쐼,3.7,�L
2021/09/01,10:40,0.611,0.904,0.576,1.109,0.779,0.367,0.632,0.589,���쐼,3.1,�L
2021/09/01,10:50,0.609,0.904,0.576,1.109,0.778,0.368,0.633,0.590,�쐼,3.4,�L
2021/09/01,11:00,0.609,0.903,0.576,1.106,0.778,0.368,0.633,0.590,�쐼,3.1,�L
2021/09/01,11:10,0.609,0.900,0.576,1.105,0.776,0.366,0.632,0.589,�쐼,2.9,�L
2021/09/01,11:20,0.607,0.901,0.576,1.109,0.776,0.366,0.632,0.589,�쐼,3.8,�L
2021/09/01,11:30,0.607,0.902,0.577,1.104,0.775,0.366,0.631,0.590,���쐼,3.2,�L
2021/09/01,11:40,0.607,0.902,0.576,1.104,0.775,0.366,0.632,0.589,��,2.6,�L
2021/09/01,11:50,0.606,0.902,0.575,1.103,0.776,0.366,0.632,0.589,��,2.9,�L
2021/09/01,12:00,0.606,0.904,0.577,1.107,0.775,0.365,0.630,0.588,���k��,3.0,�L
2021/09/01,12:10,0.609,0.902,0.574,1.103,0.773,0.367,0.630,0.588,�k��,3.4,�L
2021/09/01,12:20,0.605,0.900,0.577,1.103,0.777,0.366,0.629,0.588,�k��,3.8,�L
2021/09/01,12:30,0.608,0.896,0.576,1.101,0.774,0.367,0.629,0.589,���k��,3.7,�L
2021/09/01,12:40,0.605,0.889,0.574,1.089,0.762,0.363,0.625,0.586,��,2.0,�L
2021/09/01,12:50,0.593,0.876,0.565,1.070,0.754,0.360,0.623,0.582,���k��,2.9,�L
2021/09/01,13:00,0.594,0.875,0.565,1.068,0.755,0.362,0.623,0.582,���k��,1.7,�L
2021/09/01,13:10,0.595,0.874,0.565,1.067,0.756,0.363,0.623,0.583,�k��,1.9,�L
2021/09/01,13:20,0.594,0.871,0.566,1.064,0.753,0.362,0.620,0.579,�k��,1.4,�L
2021/09/01,13:30,0.593,0.869,0.567,1.062,0.753,0.364,0.620,0.578,���k��,2.3,�L
2021/09/01,13:40,0.595,0.871,0.568,1.064,0.754,0.363,0.620,0.579,���k��,2.3,�L
2021/09/01,13:50,0.596,0.871,0.566,1.062,0.754,0.365,0.621,0.579,�k��,1.7,�L
2021/09/01,14:00,0.597,0.873,0.568,1.064,0.754,0.364,0.621,0.580,���k��,2.5,�L
2021/09/01,14:10,0.597,0.875,0.566,1.063,0.755,0.365,0.620,0.580,���k��,3.0,�L
2021/09/01,14:20,0.595,0.874,0.565,1.066,0.756,0.365,0.619,0.581,���k��,3.8,�L
2021/09/01,14:30,0.597,0.875,0.566,1.067,0.757,0.363,0.620,0.580,���k��,4.4,�L
2021/09/01,14:40,0.596,0.875,0.564,1.065,0.756,0.363,0.621,0.581,���k��,5.5,�L
2021/09/01,14:50,0.596,0.872,0.563,1.064,0.753,0.364,0.619,0.579,���k��,5.1,�L
2021/09/01,15:00,0.595,0.871,0.563,1.062,0.753,0.362,0.620,0.582,�k��,4.4,�L
2021/09/01,15:10,0.596,0.870,0.563,1.062,0.754,0.363,0.620,0.579,���k��,3.8,�L
2021/09/01,15:20,0.593,0.870,0.561,1.062,0.754,0.362,0.619,0.580,�k��,4.2,�L
2021/09/01,15:30,0.590,0.869,0.561,1.059,0.753,0.361,0.618,0.580,���k��,4.4,�L
2021/09/01,15:40,0.589,0.870,0.558,1.061,0.752,0.361,0.621,0.580,���k��,3.5,�L
2021/09/01,15:50,0.590,0.867,0.559,1.060,0.750,0.363,0.617,0.579,���k��,3.9,�L
2021/09/01,16:00,0.589,0.867,0.559,1.058,0.749,0.360,0.619,0.580,���k��,4.1,�L
2021/09/01,16:10,0.588,0.867,0.560,1.057,0.750,0.359,0.618,0.580,���k��,1.5,�L
2021/09/01,16:20,0.588,0.868,0.559,1.060,0.749,0.361,0.618,0.578,�k�k��,1.1,�L
2021/09/01,16:30,0.588,0.868,0.560,1.058,0.749,0.358,0.617,0.579,�k�k��,0.9,�L
2021/09/01,16:40,0.589,0.868,0.557,1.057,0.749,0.359,0.618,0.580,��,0.6,�L
2021/09/01,16:50,0.589,0.870,0.558,1.060,0.748,0.358,0.618,0.578,�k��,1.5,�L
2021/09/01,17:00,0.586,0.868,0.556,1.057,0.748,0.360,0.617,0.578,���k��,1.7,�L
2021/09/01,17:10,0.587,0.865,0.559,1.059,0.749,0.359,0.617,0.577,���k��,1.4,�L
2021/09/01,17:20,0.586,0.867,0.558,1.057,0.749,0.360,0.615,0.578,�k��,1.4,�L
2021/09/01,17:30,0.586,0.867,0.558,1.056,0.746,0.360,0.617,0.578,�k��,0.8,�L
2021/09/01,17:40,0.585,0.863,0.557,1.055,0.745,0.361,0.616,0.578,���k��,1.2,�L
2021/09/01,17:50,0.586,0.861,0.557,1.053,0.745,0.360,0.616,0.577,�k��,1.4,�L
2021/09/01,18:00,0.583,0.862,0.557,1.051,0.742,0.359,0.617,0.578,�k��,1.5,�L
2021/09/01,18:10,0.585,0.858,0.559,1.050,0.744,0.358,0.615,0.576,�k��,1.7,�L
2021/09/01,18:20,0.585,0.863,0.557,1.049,0.742,0.359,0.614,0.577,���k��,0.9,�L
2021/09/01,18:30,0.586,0.860,0.558,1.048,0.743,0.359,0.615,0.579,�k��,1.2,�L
2021/09/01,18:40,0.584,0.858,0.558,1.052,0.743,0.360,0.615,0.577,�k��,1.1,�L
2021/09/01,18:50,0.585,0.862,0.557,1.049,0.744,0.359,0.616,0.577,���k��,1.5,�L
2021/09/01,19:00,0.587,0.863,0.556,1.050,0.743,0.357,0.615,0.578,�k��,1.2,�L
2021/09/01,19:10,0.583,0.864,0.558,1.049,0.743,0.358,0.616,0.579,��,0.9,�L
2021/09/01,19:20,0.585,0.864,0.556,1.051,0.745,0.358,0.616,0.579,��,1.2,�L
2021/09/01,19:30,0.586,0.862,0.554,1.047,0.743,0.361,0.614,0.578,��,0.8,�L
2021/09/01,19:40,0.584,0.862,0.556,1.048,0.743,0.358,0.614,0.578,��쐼,0.8,�L
2021/09/01,19:50,0.584,0.862,0.554,1.048,0.744,0.358,0.614,0.576,��쐼,1.4,�L
2021/09/01,20:00,0.586,0.863,0.555,1.049,0.745,0.357,0.614,0.577,�쐼,1.5,�L
2021/09/01,20:10,0.584,0.862,0.556,1.050,0.744,0.358,0.616,0.578,�쐼,1.2,�L
2021/09/01,20:20,0.585,0.862,0.555,1.049,0.744,0.358,0.616,0.578,�쐼,1.2,�L
2021/09/01,20:30,0.585,0.863,0.555,1.048,0.744,0.358,0.615,0.579,���쐼,0.9,�L
2021/09/01,20:40,0.584,0.864,0.554,1.049,0.745,0.358,0.615,0.578,���쐼,1.7,�L
2021/09/01,20:50,0.587,0.864,0.554,1.050,0.744,0.357,0.616,0.577,�쐼,1.5,�L
2021/09/01,21:00,0.584,0.864,0.554,1.048,0.746,0.357,0.615,0.578,���쐼,1.1,�L
2021/09/01,21:10,0.582,0.863,0.555,1.047,0.744,0.356,0.616,0.577,�k��,1.9,��
2021/09/01,21:20,0.583,0.864,0.554,1.049,0.745,0.358,0.615,0.577,�k�k��,2.5,��
2021/09/01,21:30,0.582,0.865,0.553,1.050,0.745,0.357,0.615,0.578,�k�k��,2.2,��
2021/09/01,21:40,0.585,0.863,0.554,1.050,0.744,0.356,0.615,0.577,�k��,2.3,��
2021/09/01,21:50,0.584,0.862,0.552,1.050,0.743,0.357,0.617,0.579,�k��,3.0,�L
2021/09/01,22:00,0.583,0.863,0.554,1.050,0.744,0.356,0.618,0.579,�k��,1.7,�L
2021/09/01,22:10,0.584,0.864,0.554,1.051,0.746,0.356,0.616,0.580,�k��,2.0,�L
2021/09/01,22:20,0.583,0.864,0.551,1.048,0.746,0.357,0.616,0.578,�k��,2.0,�L
2021/09/01,22:30,0.584,0.864,0.554,1.051,0.747,0.358,0.615,0.579,�k�k��,2.3,�L
2021/09/01,22:40,0.585,0.866,0.555,1.053,0.746,0.357,0.619,0.581,�k�k��,3.1,�L
2021/09/01,22:50,0.585,0.863,0.554,1.050,0.748,0.358,0.619,0.579,�k�k��,3.4,�L
2021/09/01,23:00,0.585,0.863,0.556,1.052,0.746,0.359,0.616,0.578,�k�k��,3.1,�L
2021/09/01,23:10,0.587,0.862,0.558,1.049,0.747,0.359,0.615,0.577,�k�k��,5.1,�L
2021/09/01,23:20,0.585,0.860,0.559,1.048,0.745,0.360,0.619,0.579,�k�k��,4.9,�L
2021/09/01,23:30,0.587,0.862,0.556,1.048,0.744,0.361,0.617,0.579,�k�k��,4.2,�L
2021/09/01,23:40,0.586,0.860,0.556,1.048,0.744,0.361,0.615,0.579,�k�k��,4.7,�L
2021/09/01,23:50,0.585,0.857,0.558,1.045,0.740,0.361,0.614,0.576,�k�k��,3.7,�L
